User: anonymous   Login
Location: 相模原市立博物館
(35.5593°N, 139.3931°E)
Time: 13:29:44
(UTC+09:00)
Language:

NOAA 15 - Orbit

View from above orbital plane
View from above orbital plane
View from above satellite
View from above satellite

Ground track
Ground track

The orbit data is extracted from the following two-line orbital elements,

1 25338U 98030A   22024.73069690  .00000049  00000-0  38783-4 0  9997
2 25338  98.6613  56.0263 0010303   2.4153 357.7075 14.26084543232783
Epoch (UTC): 24 January 2022 17:32:12
Eccentricity: 0.0010303
inclination: 98.6613°
perigee height: 797 km
apogee height: 812 km
right ascension of ascending node: 56.0263°
argument of perigee: 2.4153°
revolutions per day: 14.26084543
mean anomaly at epoch: 357.7075°
orbit number at epoch: 23278

The dashed part of the orbit path shows where the satellite is in the earth's shadow,  

DLR